This is the latest recevied weather packets stored in our database for station/object EA3GKP-10. If no packets are shown the sender has not sent any weather packets the latest 10 day(s).
| Time | Temp. | Humidity | Pressure | Rain* | Wind** | Luminosity | Snow |
|---|---|---|---|---|---|---|---|
| 1777750110 | 19.44° C | - | - | 0 mm | 3.58 m/s, 301° | - | - |
| 1777749805 | 20° C | - | - | 0 mm | 2.24 m/s, 203° | - | - |
| 1777749502 | 20° C | - | - | 0 mm | 1.79 m/s, 273° | - | - |
| 1777749199 | 20° C | - | - | 0 mm | 1.79 m/s, 262° | - | - |
| 1777748892 | 20° C | - | - | 0 mm | 1.79 m/s, 277° | - | - |
| 1777748589 | 20° C | - | - | 0 mm | 3.13 m/s, 229° | - | - |
| 1777748286 | 20° C | - | - | 0 mm | 3.13 m/s, 255° | - | - |
| 1777747983 | 20° C | - | - | 0 mm | 4.02 m/s, 276° | - | - |
| 1777747680 | 20.56° C | - | - | 0 mm | 3.58 m/s, 283° | - | - |
| 1777747074 | 20.56° C | - | - | 0 mm | 3.13 m/s, 291° | - | - |
| 1777746769 | 21.11° C | - | - | 0 mm | 2.24 m/s, 298° | - | - |
| 1777746466 | 21.11° C | - | - | 0 mm | 2.68 m/s, 284° | - | - |
| 1777746160 | 21.67° C | - | - | 0 mm | 3.58 m/s, 278° | - | - |
| 1777745857 | 22.22° C | - | - | 0 mm | 1.34 m/s, 76° | - | - |
| 1777745555 | 22.22° C | - | - | 0 mm | 1.79 m/s, 280° | - | - |
| 1777745252 | 22.78° C | - | - | 0 mm | 2.68 m/s, 273° | - | - |
| 1777744944 | 21.67° C | - | - | 0 mm | 1.79 m/s, 295° | - | - |
| 1777744338 | 21.67° C | - | - | 0 mm | 0.89 m/s, 238° | - | - |
| 1777744035 | 21.67° C | - | - | 0 mm | 1.79 m/s, 214° | - | - |
| 1777743732 | 22.22° C | - | - | 0 mm | 0.89 m/s, 174° | - | - |
| 1777743429 | 21.67° C | - | - | 0 mm | 1.79 m/s, 163° | - | - |
| 1777742824 | 22.78° C | - | - | 0 mm | 0.89 m/s, 224° | - | - |
| 1777742521 | 22.22° C | - | - | 0 mm | 1.79 m/s, 105° | - | - |
| 1777742218 | 22.22° C | - | - | 0 mm | 0.89 m/s, 124° | - | - |
| 1777741915 | 22.22° C | - | - | 0 mm | 0.89 m/s, 80° | - | - |
* Rain latest hour (hover to see other rain measurements)
** Current wind speed in m/s (hover to see current wind gust speed)